MEARES Weather Reports


Display with metric or nautical units.
time (UTC)temp
F
wind
direction
speed
MPH
gust
MPH
rain 1hr
in
rain 24hr
in
rain mn
in
humidity
%
barometer
mb
20191208020948 49 0 0.0 0.0 0.00 0.05 0.02 86 1008.5
20191208020448 49 0 0.0 0.0 0.00 0.05 0.02 86 1008.3
20191208015948 49 0 0.0 0.0 0.00 0.05 0.02 86 1008.3
20191208015448 49 0 0.0 0.0 0.00 0.05 0.02 86 1008.3
20191208014948 49 0 0.0 0.0 0.00 0.05 0.02 86 1008.2
20191208014449 49 0 0.0 0.0 0.00 0.05 0.02 86 1008.2
20191208013948 49 0 0.0 0.0 0.00 0.05 0.02 85 1008.2
20191208013449 49 0 0.0 0.0 0.00 0.05 0.02 85 1008.1
20191208012950 49 0 0.0 0.0 0.00 0.05 0.02 85 1008.2
20191208012448 49 0 0.0 0.0 0.00 0.05 0.02 85 1008.2
20191208011948 49 0 0.0 0.0 0.00 0.05 0.02 86 1008.1
20191208011449 49 0 0.0 0.0 0.00 0.05 0.02 86 1008.0
20191208010948 49 0 0.0 0.0 0.00 0.05 0.02 86 1008.0
20191208010448 49 0 0.0 0.0 0.00 0.05 0.02 86 1007.9
20191208005448 49 0 0.0 0.0 0.00 0.05 0.02 87 1007.8
20191208004948 49 0 0.0 0.0 0.00 0.05 0.02 86 1007.8
20191208004448 49 0 0.0 0.0 0.00 0.05 0.02 87 1007.6
20191208003948 49 0 0.0 0.0 0.00 0.05 0.02 86 1007.6
20191208003449 49 0 0.0 0.0 0.00 0.05 0.02 87 1007.5
20191208002948 49 0 0.0 0.0 0.00 0.05 0.02 87 1007.4
20191208002449 49 0 0.0 0.0 0.00 0.05 0.02 87 1007.4
20191208001948 49 0 0.0 0.0 0.00 0.05 0.02 86 1007.3
20191208001449 49 0 0.0 0.0 0.00 0.05 0.02 86 1007.3
20191208000948 49 0 0.0 0.0 0.00 0.05 0.02 86 1007.2
20191208000448 49 0 0.0 0.0 0.00 0.05 0.02 86 1007.2
20191207235948 49 0 0.0 0.0 0.00 0.05 0.02 86 1007.2
20191207235448 49 0 0.0 0.0 0.00 0.05 0.02 86 1007.0
20191207234448 49 0 0.0 0.0 0.00 0.05 0.02 87 1007.1
20191207233948 49 0 0.0 0.0 0.00 0.05 0.02 86 1007.0
20191207233448 49 0 0.0 0.0 0.00 0.05 0.02 87 1006.8
20191207232948 49 0 0.0 0.0 0.00 0.05 0.02 86 1006.9
20191207232448 49 0 0.0 0.0 0.00 0.05 0.02 87 1006.6
20191207231948 49 0 0.0 0.0 0.00 0.05 0.02 87 1006.7
20191207231448 49 0 0.0 0.0 0.00 0.05 0.02 86 1006.6
20191207230949 49 0 0.0 0.0 0.00 0.05 0.02 86 1006.8
20191207230448 49 0 0.0 0.0 0.00 0.06 0.02 86 1006.6
20191207225948 49 0 0.0 0.0 0.00 0.06 0.02 87 1006.6
20191207225449 49 0 0.0 0.0 0.00 0.06 0.02 86 1006.6
20191207224948 49 0 0.0 0.0 0.00 0.06 0.02 87 1006.6
20191207224448 49 0 0.0 0.0 0.00 0.06 0.02 87 1006.4
20191207223948 49 0 0.0 0.0 0.00 0.06 0.02 87 1006.4
20191207223448 49 0 0.0 0.0 0.00 0.06 0.02 87 1006.4
20191207221949 49 0 0.0 0.0 0.00 0.06 0.02 88 1006.2
20191207221448 49 0 0.0 0.0 0.00 0.06 0.02 86 1006.2
20191207220948 49 0 0.0 0.0 0.00 0.06 0.02 88 1006.2
20191207220448 49 0 0.0 0.0 0.00 0.06 0.02 88 1006.2
20191207215948 49 0 0.0 0.0 0.00 0.06 0.02 87 1006.2
20191207215450 49 0 0.0 0.0 0.00 0.06 0.02 87 1006.2
20191207214948 49 0 0.0 0.0 0.00 0.06 0.02 73 1006.4
20191207214448 49 0 0.0 0.0 0.01 0.06 0.02 73 1006.4
20191207213948 49 0 0.0 0.0 0.01 0.06 0.02 73 1006.5
20191207213448 49 0 0.0 0.0 0.01 0.06 0.02 75 1006.6
20191207212948 49 0 0.0 0.0 0.01 0.06 0.02 74 1006.6
20191207211948 49 0 0.0 0.0 0.01 0.06 0.02 82 1006.5
20191207211448 48 0 0.0 0.0 0.01 0.06 0.02 87 1006.5
20191207210948 48 0 0.0 0.0 0.01 0.06 0.02 86 1006.5
20191207210448 48 0 0.0 0.0 0.01 0.05 0.02 87 1006.2
20191207205948 48 0 0.0 0.0 0.01 0.05 0.02 87 1006.4
20191207205448 48 0 0.0 0.0 0.01 0.05 0.02 83 1006.4
20191207204948 48 0 0.0 0.0 0.01 0.05 0.02 83 1006.5
20191207204449 48 0 0.0 0.0 0.00 0.05 0.02 86 1006.4
20191207203948 48 0 0.0 0.0 0.00 0.05 0.01 80 1006.5
20191207203448 48 0 0.0 5.0 0.00 0.05 0.01 87 1006.8
20191207202948 48 197 0.0 5.0 0.00 0.05 0.01 85 1006.9
20191207202448 48 197 0.0 2.0 0.00 0.05 0.01 86 1006.8
20191207201948 48 0 0.0 2.0 0.00 0.05 0.01 88 1006.8
20191207201448 48 0 0.0 2.0 0.00 0.05 0.01 86 1006.8
20191207200949 48 197 0.0 2.0 0.00 0.05 0.01 86 1006.9
20191207200448 48 0 0.0 5.0 0.00 0.05 0.01 87 1006.9
20191207195948 48 196 0.0 5.0 0.00 0.05 0.01 86 1006.9
20191207195448 48 203 0.0 5.0 0.00 0.05 0.01 86 1006.9
20191207194448 48 228 1.0 6.0 0.00 0.05 0.01 83 1006.9
20191207193948 48 200 0.0 6.0 0.00 0.05 0.01 85 1007.3
20191207193448 48 191 1.0 4.0 0.00 0.05 0.01 85 1007.5
20191207192948 48 210 0.0 4.0 0.00 0.05 0.01 85 1007.4
20191207192448 48 243 0.0 5.0 0.00 0.05 0.01 86 1007.3
20191207191948 48 203 0.0 5.0 0.00 0.05 0.01 87 1007.4
20191207191448 48 224 0.0 5.0 0.00 0.05 0.01 84 1007.4
20191207190949 48 238 1.0 5.0 0.00 0.05 0.01 86 1007.5
20191207190448 49 225 0.0 5.0 0.00 0.06 0.01 86 1007.5
20191207185948 49 221 0.0 2.0 0.00 0.06 0.01 87 1007.6
20191207185448 49 0 0.0 6.0 0.00 0.06 0.01 88 1007.6
20191207184948 49 210 0.0 6.0 0.00 0.06 0.01 87 1007.6
20191207184449 49 218 1.0 5.0 0.00 0.06 0.01 88 1007.7
20191207183948 48 214 0.0 5.0 0.00 0.06 0.01 84 1007.7
20191207183449 48 0 0.0 0.0 0.00 0.06 0.01 87 1007.8
20191207182948 48 225 0.0 3.0 0.00 0.06 0.01 86 1007.8
20191207182448 49 0 0.0 3.0 0.00 0.06 0.01 86 1007.9
20191207181948 48 225 0.0 3.0 0.00 0.06 0.01 84 1007.8
20191207181449 48 0 0.0 0.0 0.00 0.06 0.01 86 1008.0
20191207180948 48 0 0.0 3.0 0.00 0.06 0.01 86 1008.0
20191207180448 48 225 0.0 3.0 0.00 0.06 0.01 86 1008.0
20191207175948 48 0 0.0 3.0 0.00 0.06 0.01 86 1007.9
20191207175448 48 225 0.0 3.0 0.00 0.06 0.01 85 1007.9
20191207174948 48 261 0.0 2.0 0.00 0.06 0.01 81 1007.9
20191207174448 48 0 0.0 0.0 0.00 0.06 0.01 73 1008.0
20191207173948 48 0 0.0 0.0 0.00 0.06 0.01 87 1007.8
20191207173448 48 238 0.0 6.0 0.00 0.06 0.01 75 1008.1
20191207172948 48 264 0.0 6.0 0.00 0.06 0.01 62 1008.1
20191207172448 48 284 0.0 5.0 0.00 0.06 0.01 79 1008.1
20191207171948 48 243 0.0 9.0 0.00 0.06 0.01 79 1008.0
20191207171448 48 301 0.0 9.0 0.00 0.06 0.01 66 1007.8
20191207170948 48 278 5.0 7.0 0.00 0.06 0.01 88 1008.0
20191207170448 48 291 2.0 2.0 0.00 0.06 0.01 88 1007.8
20191207165948 48 313 0.0 9.0 0.00 0.06 0.01 88 1007.7
20191207165448 48 292 0.0 9.0 0.00 0.06 0.01 86 1007.6
20191207164948 48 302 0.0 5.0 0.00 0.06 0.01 84 1007.5
20191207164448 48 326 2.0 9.0 0.00 0.06 0.01 83 1007.5
20191207163948 48 324 3.0 9.0 0.00 0.06 0.01 72 1007.5
20191207163448 48 305 0.0 8.0 0.01 0.06 0.01 72 1007.5
20191207162948 48 264 1.0 8.0 0.01 0.06 0.01 84 1007.4
20191207162448 48 285 2.0 9.0 0.01 0.06 0.01 84 1007.4
20191207161948 48 305 4.0 9.0 0.01 0.06 0.01 84 1007.2
20191207161448 48 323 1.0 7.0 0.01 0.06 0.01 87 1007.3
20191207160948 48 301 3.0 7.0 0.01 0.06 0.01 86 1007.2
20191207160448 48 337 3.0 8.0 0.01 0.06 0.01 85 1007.2
20191207155948 48 309 1.0 8.0 0.01 0.06 0.01 86 1007.1
20191207155449 48 281 2.0 7.0 0.01 0.06 0.01 86 1007.0
20191207154948 48 271 0.0 6.0 0.01 0.06 0.01 85 1007.0
20191207154447 48 271 1.0 9.0 0.01 0.06 0.01 84 1006.9
20191207153947 48 292 1.0 9.0 0.01 0.06 0.01 83 1006.9
20191207153448 48 303 4.0 9.0 0.00 0.06 0.01 84 1007.0
20191207152947 48 285 3.0 11.0 0.00 0.06 0.00 86 1006.9
20191207152447 48 280 3.0 11.0 0.00 0.06 0.00 85 1006.9
20191207151947 48 259 4.0 11.0 0.00 0.06 0.00 85 1006.9
20191207151447 48 302 5.0 12.0 0.00 0.06 0.00 82 1006.9
20191207150947 48 296 3.0 12.0 0.00 0.06 0.00 78 1006.9
20191207150448 48 287 4.0 12.0 0.00 0.06 0.00 78 1006.9
20191207145947 48 280 4.0 16.0 0.00 0.06 0.06 66 1006.9
20191207145447 49 298 5.0 16.0 0.00 0.06 0.06 82 1006.8
20191207144948 48 299 2.0 12.0 0.00 0.06 0.06 80 1006.9
20191207144447 49 306 2.0 15.0 0.00 0.06 0.06 80 1006.9
20191207143449 49 299 8.0 15.0 0.00 0.06 0.06 85 1006.8
20191207142947 49 301 6.0 15.0 0.00 0.06 0.06 83 1006.9
20191207142447 49 284 8.0 14.0 0.00 0.06 0.06 82 1006.8
20191207141948 48 331 4.0 12.0 0.00 0.06 0.06 69 1006.8
20191207141447 48 317 8.0 15.0 0.00 0.06 0.06 82 1006.8
20191207140947 48 326 6.0 15.0 0.00 0.06 0.06 74 1006.8
20191207140448 48 310 6.0 14.0 0.00 0.06 0.06 74 1006.8
20191207135947 47 294 7.0 14.0 0.00 0.06 0.06 84 1006.8
20191207135448 47 326 5.0 12.0 0.00 0.06 0.06 86 1006.8
20191207134947 47 312 5.0 14.0 0.00 0.06 0.06 82 1006.7
20191207134447 47 295 5.0 14.0 0.00 0.06 0.06 82 1006.8
20191207133948 47 284 3.0 12.0 0.00 0.06 0.06 80 1006.8
20191207133449 47 294 5.0 14.0 0.00 0.06 0.06 81 1006.7
20191207132947 47 275 4.0 14.0 0.00 0.06 0.06 83 1006.8
20191207132447 47 295 8.0 12.0 0.00 0.06 0.06 83 1006.7
20191207131949 47 285 5.0 14.0 0.00 0.06 0.06 57 1006.8
20191207131447 47 288 6.0 14.0 0.00 0.06 0.06 67 1006.8
20191207130947 47 301 8.0 11.0 0.00 0.06 0.06 63 1006.8
20191207130447 48 303 5.0 10.0 0.00 0.07 0.06 56 1006.9
20191207125947 48 299 2.0 15.0 0.00 0.07 0.06 56 1006.9
20191207125448 48 294 3.0 15.0 0.00 0.07 0.06 52 1007.0
20191207124947 47 312 6.0 13.0 0.00 0.07 0.06 74 1007.0
20191207124449 47 287 6.0 11.0 0.00 0.07 0.06 79 1007.1
20191207123948 47 268 6.0 11.0 0.00 0.07 0.06 82 1007.2
20191207123448 47 282 3.0 14.0 0.00 0.07 0.06 82 1007.2
20191207122948 47 280 4.0 14.0 0.00 0.07 0.06 80 1007.3
20191207122448 47 292 9.0 12.0 0.00 0.07 0.06 80 1007.3
20191207121948 47 299 4.0 11.0 0.00 0.07 0.06 82 1007.3
20191207121449 48 324 5.0 11.0 0.00 0.07 0.06 81 1007.4
20191207120947 47 306 6.0 15.0 0.00 0.07 0.06 81 1007.4
20191207115947 48 320 6.0 12.0 0.00 0.07 0.06 80 1007.5
20191207115447 48 302 7.0 17.0 0.00 0.07 0.06 80 1007.4
20191207114447 48 308 9.0 16.0 0.00 0.07 0.06 79 1007.4
20191207113947 48 275 8.0 16.0 0.00 0.07 0.06 80 1007.2
20191207113448 47 275 5.0 16.0 0.00 0.07 0.06 80 1007.2
20191207112947 47 285 6.0 18.0 0.00 0.07 0.06 80 1007.2
20191207112447 47 301 7.0 18.0 0.01 0.07 0.06 76 1007.1
20191207111947 48 271 7.0 11.0 0.01 0.07 0.06 63 1007.1
20191207111448 48 278 6.0 17.0 0.01 0.07 0.06 74 1007.2
20191207110948 48 268 8.0 17.0 0.01 0.07 0.06 79 1007.3
20191207110447 48 296 6.0 16.0 0.01 0.06 0.06 67 1007.2
20191207105948 47 247 8.0 14.0 0.01 0.06 0.06 79 1007.4
20191207105447 48 319 6.0 16.0 0.01 0.06 0.06 75 1007.5
20191207104947 48 275 6.0 16.0 0.01 0.06 0.06 75 1007.5
20191207104447 48 310 8.0 15.0 0.01 0.06 0.06 76 1007.5
20191207103947 48 270 5.0 21.0 0.01 0.06 0.06 77 1007.5
20191207103449 48 274 10.0 21.0 0.01 0.06 0.06 78 1007.6
20191207102947 48 264 11.0 19.0 0.01 0.06 0.06 78 1007.5
20191207102447 48 273 10.0 19.0 0.00 0.06 0.06 78 1007.6
20191207101948 48 253 11.0 19.0 0.00 0.06 0.05 79 1007.4
20191207101447 48 267 12.0 19.0 0.00 0.06 0.05 80 1007.4
20191207100947 48 261 11.0 18.0 0.00 0.06 0.05 81 1007.3
20191207100447 48 294 10.0 18.0 0.00 0.07 0.05 79 1007.2
20191207095947 48 270 12.0 18.0 0.00 0.07 0.05 76 1007.1
20191207095447 48 280 12.0 16.0 0.00 0.07 0.05 73 1007.1
20191207094949 48 270 10.0 14.0 0.00 0.07 0.05 69 1007.2
20191207094448 48 273 9.0 17.0 0.00 0.07 0.05 54 1007.2
20191207093947 49 264 9.0 17.0 0.00 0.07 0.05 54 1007.3
20191207093448 49 268 8.0 17.0 0.00 0.07 0.05 54 1007.3
20191207092447 48 259 11.0 19.0 0.00 0.07 0.05 75 1007.6
20191207091948 48 246 10.0 14.0 0.00 0.07 0.05 74 1007.7
20191207091448 48 261 9.0 14.0 0.00 0.07 0.05 78 1007.6
20191207090948 48 250 9.0 12.0 0.00 0.07 0.05 78 1007.5
20191207090448 48 292 7.0 9.0 0.00 0.07 0.05 80 1007.6
20191207085948 48 253 6.0 7.0 0.00 0.07 0.05 79 1007.5
20191207085447 48 246 3.0 11.0 0.00 0.07 0.05 79 1007.5
20191207084947 48 187 2.0 11.0 0.00 0.07 0.05 79 1007.6
20191207084447 48 257 1.0 11.0 0.00 0.07 0.05 82 1007.6
20191207083948 48 222 2.0 12.0 0.00 0.07 0.05 65 1007.6
20191207082947 48 252 5.0 12.0 0.00 0.07 0.05 56 1007.7
20191207082447 48 256 7.0 12.0 0.00 0.07 0.05 43 1007.6
20191207081948 49 247 5.0 12.0 0.00 0.07 0.05 43 1007.6
20191207081447 48 271 7.0 11.0 0.00 0.07 0.05 55 1007.8
20191207080948 48 264 3.0 8.0 0.00 0.07 0.05 58 1007.8
20191207080449 49 277 3.0 8.0 0.00 0.07 0.05 45 1008.0
20191207075947 48 245 3.0 8.0 0.00 0.07 0.05 43 1008.0
20191207075449 48 285 3.0 8.0 0.01 0.07 0.05 43 1008.1
20191207074947 49 274 0.0 8.0 0.01 0.07 0.05 43 1008.1
20191207074448 48 253 3.0 14.0 0.01 0.07 0.05 50 1008.2
20191207073947 48 256 2.0 14.0 0.01 0.07 0.05 57 1008.1
20191207073448 48 233 6.0 14.0 0.01 0.07 0.05 57 1008.3
20191207072447 48 259 9.0 15.0 0.01 0.07 0.05 62 1008.9
20191207071948 49 280 7.0 15.0 0.01 0.07 0.05 55 1008.9
20191207071447 49 271 7.0 14.0 0.01 0.07 0.05 55 1009.0
20191207070947 49 274 9.0 14.0 0.01 0.07 0.05 55 1008.9
20191207070447 49 259 7.0 11.0 0.01 0.07 0.05 60 1008.9
20191207065947 49 245 6.0 14.0 0.01 0.07 0.05 59 1008.9
20191207064947 49 266 8.0 13.0 0.00 0.07 0.04 68 1008.8
20191207064447 50 298 8.0 15.0 0.00 0.07 0.04 68 1008.9
20191207063947 50 268 7.0 15.0 0.00 0.07 0.04 66 1008.8
20191207062947 50 275 10.0 18.0 0.00 0.07 0.04 56 1008.7
20191207062447 50 266 9.0 18.0 0.00 0.07 0.04 56 1008.6
20191207061949 50 271 12.0 16.0 0.00 0.07 0.04 56 1008.6
20191207061447 50 253 10.0 16.0 0.00 0.07 0.04 58 1008.7
20191207060947 50 267 11.0 16.0 0.00 0.07 0.04 58 1008.6
20191207060447 50 246 9.0 16.0 0.00 0.07 0.04 62 1008.6
20191207055947 50 266 8.0 16.0 0.00 0.07 0.04 64 1008.6
20191207055447 50 247 11.0 17.0 0.00 0.07 0.04 66 1008.6
20191207054947 50 252 10.0 17.0 0.00 0.07 0.04 68 1008.6
20191207054447 49 219 7.0 16.0 0.00 0.07 0.04 69 1008.6
20191207053947 49 239 4.0 12.0 0.00 0.07 0.04 71 1008.5
20191207053448 49 219 5.0 10.0 0.00 0.07 0.04 71 1008.3
20191207052947 49 214 1.0 10.0 0.00 0.07 0.04 71 1008.5
20191207052447 50 257 4.0 14.0 0.00 0.07 0.04 71 1008.5
20191207051947 50 253 6.0 14.0 0.00 0.07 0.04 71 1008.5
20191207051447 50 247 6.0 14.0 0.00 0.07 0.04 75 1008.5
20191207050947 50 288 8.0 17.0 0.00 0.07 0.04 74 1008.6
20191207050447 49 256 8.0 17.0 0.00 0.08 0.04 74 1008.8
20191207045947 49 254 10.0 13.0 0.00 0.08 0.04 76 1009.0
20191207045447 49 257 5.0 13.0 0.00 0.08 0.04 78 1009.2
20191207044947 49 200 7.0 8.0 0.00 0.08 0.04 77 1009.3
20191207044447 49 224 2.0 6.0 0.00 0.08 0.04 75 1009.2
20191207043947 49 226 1.0 11.0 0.00 0.08 0.04 77 1009.3
20191207043447 49 281 1.0 11.0 0.00 0.08 0.04 75 1009.3
20191207042947 49 221 4.0 8.0 0.00 0.08 0.04 74 1009.4
20191207042447 48 211 2.0 10.0 0.00 0.08 0.04 74 1009.4
20191207041447 49 168 2.0 8.0 0.00 0.08 0.04 74 1009.3
20191207040947 49 203 1.0 8.0 0.00 0.08 0.04 74 1009.2
20191207040447 49 226 0.0 10.0 0.00 0.08 0.04 71 1009.0
20191207035947 49 207 3.0 10.0 0.00 0.08 0.04 69 1008.9
20191207035447 50 207 4.0 7.0 0.00 0.08 0.04 67 1008.9
20191207034947 50 194 2.0 7.0 0.00 0.08 0.04 66 1009.0
20191207034447 50 243 0.0 8.0 0.00 0.08 0.04 66 1009.2
20191207033948 50 246 1.0 8.0 0.00 0.08 0.04 66 1009.3
20191207032947 51 250 5.0 12.0 0.00 0.08 0.04 58 1009.2
20191207032447 52 238 1.0 12.0 0.00 0.08 0.04 58 1009.0
20191207031947 52 245 8.0 12.0 0.00 0.08 0.04 50 1009.1
20191207031447 52 261 7.0 14.0 0.01 0.08 0.04 44 1009.1
20191207030947 52 250 7.0 14.0 0.01 0.08 0.04 44 1009.2
20191207030447 52 261 8.0 13.0 0.01 0.08 0.04 44 1009.2
20191207025947 52 253 7.0 12.0 0.01 0.08 0.04 48 1009.1
20191207025447 52 261 8.0 15.0 0.01 0.08 0.04 47 1009.0
20191207024947 52 260 8.0 15.0 0.01 0.08 0.04 48 1009.0
20191207024447 52 295 8.0 13.0 0.01 0.08 0.04 44 1009.0
20191207023947 52 252 8.0 12.0 0.01 0.08 0.04 41 1009.1
20191207023447 52 263 8.0 11.0 0.01 0.08 0.04 43 1009.3
20191207022947 52 275 4.0 11.0 0.01 0.08 0.04 45 1009.3
20191207022447 51 264 7.0 8.0 0.01 0.08 0.04 41 1009.2
20191207021947 51 238 0.0 7.0 0.01 0.08 0.04 43 1009.3
20191207021447 50 208 3.0 8.0 0.00 0.08 0.04 43 1009.2